Regional Weather Roundup
Issued by NWS Huntsville, AL

Home | Current Version | Previous Version | Text Only | Print | Product List | Glossary On
Versions: 1 2 3 4 5 6 7 8 9 10 11 12 13 14 15 16 17 18 19 20 21 22 23 24 25 26 27 28 29 30 31 32 33 34 35 36 37 38 39 40 41 42 43 44 45 46 47 48 49 50
000
ASUS44 KHUN 270210
RWRHUN

WEATHER ROUNDUP FOR THE TENNESSEE VALLEY
NATIONAL WEATHER SERVICE HUNTSVILLE AL
800 PM CST SUN FEB 26 2017

ALZ001>004-270300-
NORTHWEST ALABAMA

CITY           SKY/WX    TMP DP  RH WIND       PRES   REMARKS
COURTLAND HCN    N/A     54 N/A N/A SE6         N/A
RUSSELLVILLE     N/A     52 N/A N/A MISG        N/A
SHOALS AIRPORT PTCLDY    51  25  36 SE7       30.11F
SHOALS TVA RES   N/A     54 N/A N/A MISG        N/A
$$

ALZ005>007-016-270300-
NORTH CENTRAL ALABAMA

CITY           SKY/WX    TMP DP  RH WIND       PRES   REMARKS
CULLMAN AG STN   N/A     52 N/A N/A SE5         N/A
DECATUR AP     PTCLDY    52  28  39 SE7       30.14F
HUNTSVILLE AP  PTCLDY    52  27  38 SE12      30.14S
MERIDIANVILLE  CLOUDY    52  21  30 SE5       30.15S
REDSTONE ARSN  MOCLDY    51  26  36 S7        30.14S
VINEMONT AP    FAIR      52  24  34 SE7       30.16F
$$

ALZ008>010-270300-
NORTHEAST ALABAMA

CITY           SKY/WX    TMP DP  RH WIND       PRES   REMARKS
ALBERTVILLE    PTCLDY    50  32  50 E3        30.17S
FORT PAYNE     MOCLDY    45  23  42 CALM      30.18S
SCOTTSBORO AP  MOCLDY    46  32  57 CALM      30.19R
SCOTTSBORO HCN   N/A     45 N/A N/A MISG        N/A
VALLEY HEAD      N/A     50 N/A N/A MISG        N/A
$$

TNZ076-096-097-270300-
SOUTHEASTERN MIDDLE TENNESSEE

CITY           SKY/WX    TMP DP  RH WIND       PRES   REMARKS
TULLAHOMA      CLOUDY    50  16  25 SE8       30.15S
WINCHESTER     PTCLDY    46  25  42 SE6       30.17R
$$

...SURROUNDING SITES...

CITY           SKY/WX    TMP DP  RH WIND       PRES   REMARKS
ATLANTA        PTCLDY    55  18  23 SE5       30.22R
ANNISTON       CLEAR     48  35  60 E3        30.20R
BIRMINGHAM     CLEAR     57  23  26 SE7       30.18S
CHATTANOOGA    PTCLDY    43  31  62 NW3       30.21R
CORINTH        CLOUDY    54  30  40 CALM      30.08R
DALTON         MOCLDY    43  30  61 CALM      30.21F
GADSDEN        CLEAR     50  28  42 E6        30.20R
GOLDEN TRNGL   CLEAR     55  27  33 SE12      30.07S
HALEYVILLE     FAIR      53  25  33 SE8       30.13F
JACKSON TN     CLOUDY    53  27  36 CALM      30.10R
MEMPHIS        CLOUDY    58  24  27 E6        30.05S
NASHVILLE      MOCLDY    50  26  39 NE3       30.14S
OXFORD MS      FAIR      54  27  35 SE7       30.07F
ROME           CLEAR     45  29  53 CALM      30.21R
SAVANNAH       MOCLDY    55  25  30 S3        30.08R
TUPELO         MOCLDY    55  25  31 SE9       30.07F
TUSCALOOSA     PTCLDY    59  25  27 SE9       30.14S
$$

...GULF COAST WEATHER...

CITY           SKY/WX    TMP DP  RH WIND       PRES   REMARKS
GULFPORT       CLEAR     63  51  65 SE14      30.13R
PASCAGOULA     CLEAR     56  45  66 E3        30.15R
MOBILE         PTCLDY    57  44  62 SE7       30.15S
GULF SHORES    PTCLDY    55  47  74 E6        30.16R
PENSACOLA      PTCLDY    61  46  57 SE7       30.16R
DESTIN         CLEAR     65  49  56 S5        30.18R
PANAMA CITY    CLEAR     54  49  85 CALM      30.18S
APPALACHICOLA  CLEAR     57  46  66 NE5       30.17S
$$




USA.gov is the U.S. government's official web portal to all federal, state and local government web resources and services.